This is the latest recevied weather packets stored in our database for station/object VK3XEM-13. If no packets are shown the sender has not sent any weather packets the latest 1 day(s).
| Time | Temp. | Humidity | Pressure | Rain* | Wind** | Luminosity | Snow |
|---|---|---|---|---|---|---|---|
| 1778078834 | 7.78° C | 73% | 1016.1 hPa | 0 mm | - | 0 W/m² | - |
| 1778077034 | 7.78° C | 72% | 1016.1 hPa | 0 mm | - | 0 W/m² | - |
| 1778076134 | 7.78° C | 72% | 1016.1 hPa | 0 mm | - | 0 W/m² | - |
| 1778075236 | 8.33° C | 72% | 1016.5 hPa | 0 mm | - | 0 W/m² | - |
| 1778074335 | 8.89° C | 70% | 1016.1 hPa | 0 mm | - | 0 W/m² | - |
| 1778070735 | 9.44° C | 81% | 1015.8 hPa | 0 mm | - | 0 W/m² | - |
| 1778068934 | 9.44° C | 83% | 1015.4 hPa | 0.25 mm | - | 0 W/m² | - |
| 1778067134 | 10° C | 84% | 1015.4 hPa | 0.25 mm | - | 0 W/m² | - |
| 1778066234 | 10° C | 86% | 1015.4 hPa | 0.25 mm | - | 0 W/m² | - |
| 1778065334 | 10° C | 89% | 1015.1 hPa | 0.25 mm | - | 0 W/m² | - |
| 1778062634 | 11.11° C | 90% | 1014.4 hPa | 3.56 mm | - | 0 W/m² | - |
| 1778061734 | 11.11° C | 91% | 1014.1 hPa | 4.32 mm | - | 0 W/m² | - |
| 1778060834 | 12.22° C | 90% | 1013.4 hPa | 2.79 mm | - | 0 W/m² | - |
| 1778059935 | 12.22° C | 91% | 1013.1 hPa | 6.6 mm | - | 0 W/m² | - |
| 1778058134 | 12.22° C | 91% | 1013.7 hPa | 7.11 mm | - | 0 W/m² | - |
| 1778057235 | 12.22° C | 89% | 1013.7 hPa | 5.33 mm | - | 0 W/m² | - |
| 1778055434 | 13.89° C | 73% | 1013.1 hPa | 0 mm | - | 0 W/m² | - |
| 1778054534 | 14.44° C | 68% | 1012.7 hPa | 0 mm | - | 0 W/m² | - |
| 1778053634 | 15° C | 67% | 1012.7 hPa | 0 mm | - | 0 W/m² | - |
| 1778052734 | 15° C | 64% | 1012.7 hPa | 0 mm | - | 1 W/m² | - |
| 1778051835 | 15.56° C | 63% | 1012.7 hPa | 0 mm | - | 9 W/m² | - |
| 1778050934 | 15.56° C | 62% | 1013.1 hPa | 0 mm | - | 20 W/m² | - |
| 1778050034 | 15.56° C | 62% | 1013.1 hPa | 0 mm | - | 14 W/m² | - |
| 1778046434 | 16.11° C | 60% | 1014.1 hPa | 0 mm | - | 130 W/m² | - |
| 1778045534 | 16.67° C | 59% | 1014.1 hPa | 0 mm | - | 111 W/m² | - |
* Rain latest hour (hover to see other rain measurements)
** Current wind speed in m/s (hover to see current wind gust speed)